Temperature
18 17 16 15 15 15 15 15 15 15 15 15 14 14 14 14 14 14 14 14 14 14 14 14 14 13 13 14 14 14 14 14 14 14 14 14 14 14 14 13 13 13 14
20 17 16 15 15 15 15 15 15 15 14 14 14 14 14 14 14 14 14 13 13 13 13 13 13 13 13 13 13 14 14 14 14 14 13 13 13 12 13 13 13 12 13
19 17 16 16 15 15 15 15 15 14 14 14 14 14 14 13 13 13 13 13 13 13 13 13 13 13 13 13 13 14 14 14 13 13 12 11 11 12 12 12 12 12 12
18 17 16 15 15 15 15 15 15 14 14 14 13 13 13 13 13 13 13 13 13 12 12 12 12 12 13 13 13 13 13 13 13 12 11 11 11 11 11 11 11 11 11
18 16 15 15 15 15 14 14 14 14 14 13 13 13 13 13 12 12 12 12 12 12 12 12 12 12 12 12 13 13 13 13 13 11 11 10 10 10 10 10 10 10 11
17 16 15 15 14 14 14 14 14 14 13 13 13 13 13 12 12 12 12 12 12 12 12 12 12 12 12 12 12 13 12 12 11 11 10 10 10 10 10 10 10 10 10
16 15 15 14 14 14 14 14 14 13 13 13 13 12 12 12 12 12 12 12 11 12 12 11 11 11 11 12 12 12 12 12 10 10 10 10 10 9 9 9 9 9 9
16 15 14 14 14 14 14 14 13 13 13 12 12 12 12 12 12 12 12 11 11 11 11 11 11 11 11 12 12 12 12 11 10 10 9 9 9 9 9 9 9 9 9
15 14 14 14 14 14 13 13 13 13 12 12 12 12 12 11 11 11 11 11 11 11 10 10 10 11 11 11 11 11 11 11 9 9 9 9 9 9 9 9 9 9 9
14 14 14 13 13 13 13 13 13 13 12 12 12 12 12 11 11 11 11 11 11 10 10 10 10 10 11 11 11 11 10 10 9 9 9 9 9 9 9 9 9 9 9
14 14 13 13 13 13 13 12 12 12 12 12 12 12 11 11 10 10 10 11 10 10 10 10 10 10 10 10 10 10 10 9 9 9 8 9 8 8 8 8 8 8 8
15 14 13 13 13 13 12 12 12 12 12 11 11 11 11 10 10 10 10 10 10 10 10 10 10 10 10 9 10 9 9 9 8 8 8 9 8 8 8 8 8 8 8
16 15 14 13 13 13 12 12 12 11 11 11 11 11 11 10 10 10 10 10 10 10 9 10 10 9 9 9 9 9 9 8 8 8 8 9 8 8 8 8 7 7 7
15 15 15 14 13 13 13 12 12 12 11 11 11 11 11 11 10 10 10 10 10 9 10 9 9 9 9 9 9 8 8 8 8 8 8 9 8 8 8 7 7 7 7
16 15 15 14 14 13 13 12 12 12 12 11 11 11 11 11 11 11 10 10 10 10 10 9 9 9 9 8 8 8 8 8 8 8 8 8 8 8 7 7 7 7 7
17 16 16 15 14 13 13 13 12 12 12 11 12 11 11 11 11 11 10 10 10 10 9 9 9 9 8 8 8 8 8 8 8 8 8 8 8 8 8 7 7 7 7
18 17 16 15 14 14 13 13 12 12 12 12 12 11 11 11 11 11 10 10 10 10 9 9 8 8 8 8 8 8 8 8 8 8 8 8 8 8 8 8 7 7 7
17 16 16 16 15 14 14 13 13 12 12 12 12 12 11 11 11 10 10 10 10 10 9 9 9 8 8 8 8 8 8 8 8 8 8 8 7 7 8 8 8 7 7
16 16 16 16 16 15 14 13 12 12 12 12 12 12 11 11 11 10 10 10 10 9 9 9 9 8 8 8 8 8 8 8 8 8 8 8 8 8 7 8 8 8 7
16 16 16 15 15 14 13 12 12 12 12 12 12 12 12 11 11 10 10 10 9 9 9 9 8 8 8 8 8 8 8 8 8 8 8 8 8 8 7 7 7 7 8
15 15 15 15 15 14 13 13 13 13 12 12 12 12 11 11 11 10 10 10 9 9 9 9 8 8 8 8 8 8 8 8 8 8 8 7 8 8 8 7 7 7 7
16 16 16 15 15 15 15 15 15 14 12 12 12 12 12 11 11 10 10 10 10 9 9 9 8 8 8 8 8 8 8 7 8 8 8 8 7 8 8 7 7 7 7
16 16 17 17 16 16 16 14 13 12 11 11 12 12 12 12 11 11 10 10 10 9 9 9 9 8 8 8 8 8 8 9 8 8 8 8 8 8 7 7 7 7 7
18 18 18 17 17 17 16 14 13 13 13 14 14 13 12 12 11 11 10 10 9 9 9 9 9 9 8 8 8 8 8 8 8 8 8 8 8 8 7 8 7 7 7
19 18 18 17 17 16 16 15 14 14 15 14 13 12 12 12 12 11 10 10 10 9 9 9 9 9 8 8 8 8 8 8 8 7 8 7 8 8 8 8 7 7 7
18 18 18 17 17 16 16 15 15 15 14 13 12 12 12 12 12 11 11 10 10 10 9 9 9 9 9 8 8 8 8 8 8 8 7 7 7 8 8 8 7 7 7
Wind_Speed
16 21 23 23 21 19 19 19 18 18 17 17 16 16 16 15 16 16 16 16 16 16 16 17 17 18 19 19 19 19 19 19 19 19 19 19 18 18 17 16 14 16 18
21 24 25 24 22 21 20 19 19 19 18 17 17 16 16 15 15 15 16 16 15 15 16 16 16 17 17 18 18 18 18 18 18 17 16 17 17 17 17 17 16 15 16
22 24 26 24 23 21 20 20 19 19 18 17 17 16 16 15 15 15 15 15 15 15 15 15 16 16 17 17 17 17 17 16 15 13 12 13 15 16 15 15 15 15 15
23 23 25 25 24 22 21 20 19 19 18 17 17 16 15 15 15 15 15 15 15 15 15 15 16 16 16 16 16 16 16 15 13 10 11 12 12 14 14 14 14 14 13
22 22 24 25 24 23 21 20 20 19 18 17 17 16 15 15 15 15 15 15 15 14 14 15 15 15 15 15 15 15 14 13 11 10 11 11 11 12 12 12 12 12 12
21 21 25 25 24 23 22 21 20 19 18 18 17 16 15 15 16 15 15 14 14 14 13 14 14 14 14 14 14 14 12 10 8 10 10 10 10 11 11 10 10 10 11
21 20 24 24 24 23 22 21 20 19 18 17 17 16 16 16 15 15 14 14 13 13 13 13 13 13 13 13 13 12 11 8 9 9 9 9 10 10 11 10 10 10 10
20 19 23 24 23 23 22 21 20 19 18 17 17 16 16 15 15 14 14 13 13 13 13 13 13 12 12 12 11 10 9 6 8 8 8 9 9 9 9 9 9 9 10
19 18 20 22 22 22 22 22 21 19 18 18 17 16 16 15 15 14 13 13 13 12 12 12 12 11 11 11 10 10 8 5 6 7 7 7 8 8 8 8 8 9 10
18 18 18 21 21 21 21 21 20 19 18 18 17 16 16 15 14 14 13 13 12 12 11 11 11 11 10 10 9 8 6 2 6 6 6 7 7 7 7 7 8 8 9
18 18 18 18 19 20 20 20 20 19 18 17 17 17 16 13 13 13 12 12 12 11 11 11 10 10 10 9 8 6 3 3 5 5 5 7 6 6 7 8 8 9 10
22 21 18 18 18 18 17 18 17 17 17 16 15 16 13 12 11 11 13 11 11 11 10 10 10 9 6 7 7 4 3 3 3 4 5 6 6 6 7 8 8 10 10
23 22 20 19 18 17 14 15 14 14 15 15 15 15 13 11 11 11 11 11 11 10 9 10 9 6 5 4 4 3 3 2 3 3 5 6 6 6 6 7 9 9 10
23 23 21 20 18 18 16 14 14 12 12 12 14 15 13 10 10 10 9 10 9 8 8 7 5 6 5 5 4 3 3 2 2 3 5 6 6 6 6 7 8 8 9
22 23 22 21 20 18 16 13 13 13 13 14 14 15 14 11 10 10 9 9 9 8 8 7 6 6 5 5 4 3 2 2 2 3 4 6 6 6 6 7 7 8 8
23 23 22 22 21 19 16 14 13 13 13 14 14 15 15 12 11 10 9 9 9 9 8 7 7 6 5 4 3 3 2 2 2 2 3 5 6 6 6 6 7 7 7
23 23 23 22 21 20 18 16 13 14 14 13 14 16 16 14 13 11 9 9 9 9 9 7 7 6 4 4 4 3 2 2 2 3 3 3 4 7 7 6 6 6 7
21 22 23 19 22 21 18 16 13 14 14 13 14 15 17 16 15 12 9 9 10 10 9 7 6 6 5 4 3 3 3 3 2 3 3 3 3 3 5 6 5 6 6
22 22 23 23 23 21 19 15 14 13 14 14 14 15 17 17 16 14 10 10 12 10 9 7 7 6 5 5 3 3 2 3 3 4 4 4 4 3 3 4 4 5 5
21 22 22 22 22 20 16 13 11 12 13 14 14 15 18 17 18 15 11 12 13 9 9 9 8 6 5 5 4 3 2 2 3 4 4 5 4 4 2 2 1 2 3
21 22 23 23 22 19 16 16 16 15 14 14 14 17 19 19 19 16 12 13 12 11 11 11 9 9 6 5 4 4 3 3 4 4 5 5 5 5 4 3 2 1 1
23 24 24 24 23 22 19 18 17 16 14 13 12 16 19 20 20 17 15 13 13 11 12 12 11 8 6 6 5 4 4 4 5 5 5 5 5 5 5 4 3 3 2
24 25 23 25 25 25 23 16 14 12 11 12 15 15 18 21 21 20 18 15 14 13 12 13 13 12 8 8 7 5 4 3 3 5 6 6 6 5 5 5 5 4 4
23 23 24 25 25 25 24 20 21 17 17 20 16 16 17 21 21 21 20 18 16 14 14 14 14 12 10 8 7 6 4 2 3 3 5 6 6 6 6 5 6 6 5
21 21 23 24 25 25 25 25 23 21 19 16 16 18 18 18 20 21 21 19 17 15 16 15 14 14 11 10 8 6 6 4 5 4 4 4 5 6 6 6 6 6 6
18 19 20 23 25 25 26 26 26 25 22 19 20 18 17 14 16 20 20 19 18 16 16 16 15 16 13 12 10 8 7 5 6 6 6 5 5 5 6 6 6 7 7
Wind_Direction
167 165 165 159 155 151 148 144 139 135 130 127 122 117 114 110 108 103 100 96 94 92 90 89 86 84 83 80 78 76 74 73 72 71 71 69 68 66 62 57 57 58 54
159 162 163 159 157 153 149 144 139 135 132 129 126 121 116 113 112 108 105 100 97 95 94 93 90 87 86 83 81 79 77 76 73 71 74 74 68 66 64 61 58 59 57
156 160 161 160 158 154 149 145 141 138 136 133 130 125 120 117 115 112 108 103 99 97 96 95 93 89 87 86 84 82 81 78 75 74 75 75 72 67 66 63 61 59 57
156 159 161 160 158 154 151 148 144 141 139 136 133 129 124 121 118 114 110 106 104 101 99 98 96 93 90 89 88 86 83 80 75 73 72 70 71 67 65 62 61 58 56
157 159 157 159 158 156 153 151 148 146 143 140 137 134 129 125 121 116 112 110 107 106 104 102 99 98 95 93 91 88 84 80 79 77 75 72 71 66 64 60 56 54 52
158 158 156 161 159 158 156 154 151 149 146 143 141 137 134 128 123 118 115 113 112 111 109 105 103 103 100 97 94 90 84 80 87 76 72 66 66 62 60 57 53 49 46
158 158 158 162 161 160 159 155 153 151 149 146 144 140 137 131 126 123 120 119 119 118 115 112 108 107 103 101 97 91 83 71 79 77 70 64 58 54 54 51 47 44 43
158 159 159 163 163 162 159 157 155 153 151 150 147 143 140 137 133 129 127 126 125 123 121 117 114 111 107 104 99 91 81 74 87 78 69 64 49 48 50 46 43 41 41
161 162 162 165 165 164 162 159 157 155 153 153 150 146 144 141 139 136 134 131 130 127 124 120 118 115 110 106 101 94 85 59 81 74 66 57 41 42 46 44 43 40 40
166 169 168 168 168 168 165 161 158 157 156 155 151 147 144 145 143 140 140 137 134 131 128 123 120 116 111 106 103 100 98 112 80 77 63 51 34 40 46 46 44 43 42
175 176 175 173 171 170 168 163 161 159 159 156 152 146 150 155 151 151 141 140 139 137 133 127 122 117 116 111 105 110 136 89 84 68 58 35 31 43 52 52 49 51 50
181 181 179 178 174 171 168 167 169 168 167 170 165 163 166 161 155 149 138 142 141 137 135 129 126 132 147 131 127 158 115 101 91 79 61 25 34 46 54 53 56 55 51
181 181 182 181 177 174 171 172 173 173 173 176 171 170 168 161 156 158 156 154 150 152 148 141 154 151 147 130 136 123 99 98 91 86 68 37 32 44 54 60 60 55 51
183 184 183 182 180 180 177 177 176 176 176 175 175 173 171 170 171 169 170 166 165 166 159 163 161 152 149 147 143 128 121 105 95 85 69 43 34 47 57 65 59 55 51
187 186 186 185 184 182 181 181 182 181 179 177 177 179 179 176 177 173 174 171 173 169 171 171 170 161 160 153 145 142 131 118 115 112 96 62 42 50 61 62 57 54 50
192 189 187 188 187 186 186 185 185 184 182 180 180 184 184 183 180 178 178 178 177 178 178 179 175 170 166 163 158 155 147 138 134 136 114 98 68 57 64 63 56 50 45
193 190 189 189 189 189 190 189 186 185 184 185 185 187 187 187 184 182 183 183 183 182 180 181 175 177 168 169 173 167 162 155 158 151 140 131 112 82 70 63 55 47 42
193 191 190 189 192 192 192 190 188 188 188 188 188 189 191 190 188 187 188 188 184 182 184 184 184 184 182 186 181 170 173 170 180 164 158 152 137 122 95 68 55 47 39
196 193 191 191 193 193 192 191 191 190 192 192 191 192 194 193 192 192 193 190 186 187 189 188 193 193 189 187 182 176 181 186 179 182 172 162 153 148 131 100 81 56 36
198 195 194 193 195 192 191 191 191 194 196 196 195 196 195 195 194 196 195 193 189 191 193 193 192 193 194 184 175 180 188 192 195 190 184 179 173 173 174 164 157 99 52
198 196 195 194 194 190 190 192 194 198 199 199 200 199 198 198 196 197 196 194 194 197 198 197 192 190 191 181 186 191 191 201 202 195 200 197 189 192 198 204 224 245 233
199 198 197 196 194 193 195 197 199 199 200 200 198 201 201 201 199 198 199 197 196 199 200 199 196 196 188 191 205 206 208 198 201 206 205 209 207 203 208 216 223 234 262
201 200 198 197 196 196 196 195 194 195 196 198 201 202 203 203 202 200 202 201 199 200 201 200 199 200 196 195 209 213 222 223 181 189 205 211 213 215 216 217 225 231 243
203 200 200 199 198 197 195 195 192 194 199 203 202 202 201 202 204 204 204 204 202 203 204 202 202 205 202 197 200 222 238 248 224 203 198 209 216 225 225 221 226 228 233
204 200 200 200 200 198 196 198 198 202 206 204 202 202 200 201 204 205 205 205 205 205 206 202 201 205 206 206 198 194 205 217 233 238 231 210 216 221 225 228 230 231 230
204 200 200 200 201 200 199 200 202 205 205 202 200 200 199 199 202 205 206 205 206 206 206 204 202 204 207 210 205 199 197 200 208 216 235 236 235 222 222 228 231 230 229
Height
1506 1510 1514 1517 1521 1524 1527 1529 1531 1533 1534 1535 1537 1538 1538 1539 1540 1541 1541 1542 1542 1543 1543 1543 1544 1544 1543 1543 1544 1544 1544 1543 1543 1543 1543 1543 1543 1542 1542 1542 1542 1541 1540
1504 1509 1513 1517 1520 1524 1526 1529 1531 1533 1534 1536 1537 1538 1539 1540 1540 1541 1542 1542 1542 1543 1544 1544 1544 1544 1544 1544 1544 1544 1544 1544 1544 1545 1544 1544 1544 1543 1543 1542 1542 1541 1541
1504 1508 1512 1516 1520 1523 1526 1529 1531 1533 1534 1536 1537 1538 1539 1540 1541 1542 1542 1542 1543 1544 1544 1544 1545 1545 1545 1545 1545 1545 1545 1545 1546 1546 1546 1546 1545 1544 1544 1543 1543 1542 1542
1504 1508 1512 1515 1519 1523 1526 1528 1531 1533 1534 1536 1537 1539 1540 1541 1541 1542 1543 1543 1544 1544 1545 1545 1545 1546 1546 1545 1546 1546 1546 1546 1547 1547 1548 1548 1547 1546 1545 1545 1544 1543 1543
1504 1508 1512 1515 1519 1523 1526 1528 1530 1532 1535 1536 1538 1539 1540 1541 1542 1543 1543 1544 1544 1545 1545 1546 1546 1546 1546 1547 1547 1547 1547 1548 1548 1549 1549 1549 1548 1547 1547 1546 1545 1545 1544
1504 1508 1511 1515 1519 1522 1525 1528 1530 1533 1535 1536 1538 1539 1540 1542 1542 1543 1544 1544 1545 1546 1546 1547 1547 1547 1547 1548 1548 1548 1548 1549 1550 1550 1550 1551 1550 1549 1548 1547 1546 1546 1545
1504 1508 1512 1515 1519 1522 1525 1528 1530 1533 1535 1537 1538 1540 1541 1542 1543 1543 1544 1545 1546 1546 1547 1547 1548 1548 1548 1549 1549 1549 1550 1550 1551 1551 1551 1551 1550 1550 1549 1548 1547 1547 1546
1504 1508 1512 1515 1519 1522 1525 1528 1531 1533 1535 1537 1538 1540 1541 1542 1543 1544 1545 1545 1546 1547 1548 1548 1549 1549 1550 1550 1550 1550 1551 1551 1552 1552 1552 1552 1551 1550 1550 1549 1548 1548 1547
1504 1508 1512 1515 1519 1522 1525 1528 1530 1533 1535 1537 1538 1540 1541 1542 1543 1544 1545 1546 1547 1548 1548 1549 1550 1550 1551 1551 1551 1551 1552 1552 1554 1553 1553 1552 1551 1551 1550 1550 1549 1548 1547
1504 1508 1511 1515 1518 1521 1524 1527 1530 1532 1535 1536 1538 1540 1541 1542 1544 1545 1546 1546 1547 1548 1549 1550 1550 1551 1551 1552 1552 1552 1553 1553 1554 1554 1554 1553 1552 1552 1551 1550 1550 1549 1548
1502 1506 1510 1514 1517 1520 1524 1526 1529 1532 1534 1536 1538 1539 1541 1543 1544 1545 1546 1547 1548 1549 1550 1550 1551 1552 1552 1553 1553 1553 1553 1555 1555 1554 1554 1553 1552 1552 1552 1551 1550 1549 1548
1498 1503 1507 1511 1515 1518 1522 1525 1528 1531 1533 1535 1537 1539 1541 1543 1544 1545 1546 1547 1548 1549 1550 1551 1551 1552 1553 1554 1554 1554 1555 1555 1555 1555 1554 1553 1553 1553 1552 1551 1551 1550 1549
1495 1500 1504 1508 1512 1516 1519 1523 1526 1529 1531 1534 1536 1538 1540 1542 1543 1544 1545 1547 1548 1549 1550 1551 1552 1553 1554 1554 1554 1555 1555 1555 1555 1555 1554 1553 1553 1553 1553 1552 1551 1550 1549
1493 1497 1501 1505 1509 1513 1517 1520 1523 1526 1529 1532 1534 1536 1538 1540 1542 1543 1545 1546 1547 1549 1550 1551 1552 1553 1553 1554 1554 1555 1555 1555 1555 1555 1554 1553 1553 1553 1553 1552 1552 1551 1549
1490 1494 1497 1502 1506 1510 1514 1517 1521 1524 1526 1529 1531 1534 1536 1538 1540 1542 1543 1545 1546 1548 1549 1550 1552 1553 1553 1554 1554 1554 1555 1555 1555 1555 1554 1553 1553 1553 1553 1552 1552 1551 1549
1486 1490 1494 1498 1502 1506 1510 1514 1517 1521 1524 1527 1529 1531 1534 1536 1538 1540 1542 1543 1545 1547 1548 1550 1551 1552 1553 1553 1554 1554 1554 1554 1554 1554 1554 1553 1553 1552 1552 1552 1551 1550 1549
1482 1486 1490 1494 1499 1503 1507 1511 1514 1517 1521 1524 1526 1529 1531 1534 1536 1538 1540 1542 1544 1545 1547 1548 1550 1551 1552 1552 1553 1553 1554 1554 1554 1554 1553 1553 1553 1552 1552 1551 1550 1550 1549
1479 1483 1486 1491 1495 1499 1503 1507 1511 1514 1517 1520 1523 1526 1529 1531 1534 1536 1538 1540 1542 1543 1545 1546 1548 1549 1550 1551 1552 1552 1552 1552 1553 1553 1552 1552 1552 1552 1551 1550 1550 1549 1548
1474 1478 1482 1486 1490 1494 1499 1504 1507 1511 1514 1517 1520 1523 1525 1528 1531 1533 1535 1537 1539 1541 1543 1544 1546 1548 1549 1550 1551 1551 1551 1551 1551 1551 1551 1551 1551 1550 1550 1549 1549 1548 1547
1469 1473 1477 1481 1486 1491 1495 1500 1503 1507 1509 1512 1515 1518 1522 1524 1527 1530 1532 1535 1537 1538 1540 1542 1544 1546 1547 1548 1549 1549 1550 1550 1550 1550 1550 1549 1549 1549 1549 1548 1548 1546 1545
1462 1467 1471 1475 1480 1485 1489 1492 1496 1499 1503 1507 1510 1513 1517 1520 1523 1526 1529 1531 1533 1535 1538 1540 1542 1543 1545 1546 1547 1548 1548 1548 1548 1548 1548 1548 1548 1547 1547 1547 1546 1545 1544
1454 1459 1464 1468 1473 1477 1481 1485 1490 1494 1498 1502 1505 1508 1512 1515 1518 1521 1524 1527 1529 1532 1534 1536 1538 1540 1542 1543 1545 1547 1548 1548 1545 1545 1546 1546 1546 1546 1545 1545 1544 1543 1542
1447 1451 1455 1460 1465 1470 1475 1480 1485 1490 1493 1496 1498 1501 1505 1509 1512 1516 1519 1523 1525 1528 1530 1532 1535 1537 1538 1540 1542 1544 1545 1545 1545 1544 1543 1543 1544 1543 1543 1543 1542 1541 1540
1439 1444 1448 1453 1458 1463 1467 1472 1476 1479 1482 1486 1490 1494 1498 1502 1506 1510 1514 1517 1520 1523 1526 1528 1531 1533 1535 1536 1538 1540 1541 1542 1543 1543 1542 1541 1541 1541 1541 1540 1539 1538 1537
1432 1436 1441 1446 1450 1455 1459 1463 1468 1472 1476 1481 1485 1488 1492 1495 1499 1503 1508 1511 1515 1518 1521 1524 1526 1529 1531 1533 1534 1535 1537 1538 1539 1540 1540 1539 1539 1538 1538 1537 1536 1535 1534
1424 1428 1433 1438 1442 1447 1451 1455 1460 1464 1469 1473 1477 1480 1484 1488 1492 1496 1501 1505 1508 1512 1515 1518 1521 1524 1526 1528 1530 1531 1533 1534 1535 1536 1537 1536 1536 1535 1534 1534 1533 1532 1531